OneWeb SL0021

operational
NORAD ID: 45134 Int'l Des: 2020-008 Owner: ONEWEB Country: UK Constellation: oneweb
LEOCIRCULARPOLARONEWEB_TYPE

Über OneWeb SL0021

Beschreibung wird geladen...

Live-Position

3D-Globus wird geladen...

Nächste Überflüge

Höhenverlauf

Altitude vs Time

uPlot chart will show altitude changes over time

Zweizeiliger Elementsatz

1 45134U 20008D 25351.63571228 -.00000508 00000-0 -14926-2 0 9996
2 45134 87.8805 72.4838 0001801 103.1146 257.0182 13.10370482284876
Epoch: 17. Dez. 2025 • Age: 10 hours

Aktueller Status

Höhe 1223.6 km
Geschwindigkeit 7.24 km/s
Subsatellitenpunkt 22.02°N, 146.28°E
Startdatum 6. Feb. 2020
Alter 5.8 years
Typ internet

Technische Details

Klassifizierung Payload
Masse 148.00 kg
Trockenmasse 140.00 kg
Gesamtmasse 148.00 kg
Länge 1.30 m
Durchmesser 1.00 m
Spannweite 5.00 m
Form Trapezoid+2 pan
Hersteller ONEWUS
Bus-Typ ARROW
Phasenstatus In Orbit
Besitzer/Staat ONEWEB/UK

Große Konstellationen

Loading constellations...